Skip Page Navigation
NASA JPL Caltech
NASA Logo - Jet Propulsion Laboratory + View the NASA Portal
+ Center for Near-Earth Object Studies
JPL Home Earth Solar System Stars & Galaxies Technology
JPL Solar System Dynamics
BODIES ORBITS EPHEMERIDES TOOLS PHYSICAL DATA DISCOVERY FAQ SITE MAP
IMPORTANT: The SSD Announcement email list is now available. Major changes are coming in the near future, including possible hostname and/or URL changes. To be notified of such changes, subscribe to this email list.

Please visit this page for more details.


JPL Small-Body Database Browser
Search: [ help ]  
413748 (2006 CS14)
Classification: Main-belt Asteroid          SPK-ID: 2413748
Ephemeris | Orbit Diagram | Orbital Elements | Mission Design | Physical Parameters | Discovery Circumstances | Close-Approach Data ]

[ show orbit diagram ]
Orbital Elements at Epoch 2458600.5 (2019-Apr-27.0) TDB
Reference: JPL 14 (heliocentric ecliptic J2000)
 Element Value Uncertainty (1-sigma)   Units 
e .2387135489314725 6.4806e-08  
a 2.787870919330878 3.6104e-08 au
q 2.122368358214557 1.9366e-07 au
i 7.895036252100146 6.0036e-06 deg
node 141.8830360858052 4.8376e-05 deg
peri 292.9766958259484 5.0198e-05 deg
M 341.7093913269472 1.4766e-05 deg
tp 2458686.883953587476
(2019-Jul-22.38395359)
7.0827e-05 TDB
period 1700.228999886031
4.65
3.3028e-05
9.043e-08
d
yr
n .2117361837870848 4.1131e-09 deg/d
Q 3.453373480447198 4.4723e-08 au
  Orbit Determination Parameters
   # obs. used (total)      174  
   data-arc span      5188 days (14.20 yr)  
   first obs. used      2004-08-23  
   last obs. used      2018-11-06  
   planetary ephem.      DE431  
   SB-pert. ephem.      SB431-N16  
   condition code      0  
   norm. resid. RMS      .53395  
   source      ORB  
   producer      Otto Matic  
   solution date      2019-Jul-14 06:50:44  

Additional Information
 Earth MOID = 1.15202 au 
 Jupiter MOID = 1.88432 au 
 T_jup = 3.275 
[ hide covariance matrix ]
Orbital Elements at Epoch 2457167.5 (2015-May-25.0) TDB
Reference: JPL 14 (heliocentric ecliptic J2000)
 Element Value Uncertainty (1-sigma)   Units 
e .2373010625162535 6.486e-08  
q 2.127764684113698 1.9367e-07 au
tp 2456988.113468865840
(2014-Nov-26.61346887)
5.5851e-05 TDB
node 141.9181182040759 4.8312e-05 deg
peri 293.3083100468758 5.0156e-05 deg
i 7.896738305397535 6.0061e-06 deg
  Orbit Determination Parameters
   # obs. used (total)      174  
   data-arc span      5188 days (14.20 yr)  
   first obs. used      2004-08-23  
   last obs. used      2018-11-06  
   planetary ephem.      DE431  
   SB-pert. ephem.      SB431-N16  
   condition code      0  
   norm. resid. RMS      .53395  
   source      ORB  
   producer      Otto Matic  
   solution date      2019-Jul-14 06:50:44  

Additional Information
 Jupiter MOID = 1.88432 au 
 T_jup = 3.275 
Orbit Covariance (6×6)
  e q tp node peri i
e 4.206789246276822E-15 -1.245507230118478E-14 -6.278168016707261E-13 -9.853653995481052E-14 -1.166875002212878E-13 -1.461607372402736E-14
q -1.245507230118478E-14 3.750792047381405E-14 2.09897405947657E-12 2.97241811866918E-13 4.055342361199463E-13 4.485638699658251E-14
tp -6.278168016707261E-13 2.09897405947657E-12 3.119370022786423E-9 1.739971920024726E-11 8.049695907739338E-10 6.363700958613191E-13
node -9.853653995481052E-14 2.97241811866918E-13 1.739971920024726E-11 2.334059472952918E-9 -2.305843774638354E-9 -7.913731193880295E-12
peri -1.166875002212878E-13 4.055342361199463E-13 8.049695907739338E-10 -2.305843774638354E-9 2.515666031830729E-9 8.263177872460259E-12
i -1.461607372402736E-14 4.485638699658251E-14 6.363700958613191E-13 -7.913731193880295E-12 8.263177872460259E-12 3.607346948146299E-11

Ephemeris | Orbit Diagram | Orbital Elements | Mission Design | Physical Parameters | Discovery Circumstances | Close-Approach Data ]

Physical Parameter Table
Parameter Symbol Value Units Sigma Reference Notes
absolute magnitude H 16.5   n/a MPO455947  
diameter diameter 3.041 km 0.180 urn:nasa:pds:neowise_diameters_albedos::2.0[mainbelt] (http://adsabs.harvard.edu/abs/2011ApJ...741...68M)  
geometric albedo albedo 0.048   0.008 urn:nasa:pds:neowise_diameters_albedos::2.0[mainbelt] (http://adsabs.harvard.edu/abs/2011ApJ...741...68M)  

413748 (2006 CS14)          Discovered 2006-Feb-01 by Spacewatch at Kitt Peak
Reference: Last Updated: 2014-11-10

[ show close-approach data ]
Alternate Designations
 2006 CS14 = 2009 TF15 
Ephemeris | Orbit Diagram | Orbital Elements | Mission Design | Physical Parameters | Discovery Circumstances | Close-Approach Data ]
ABOUT SSD CREDITS/AWARDS PRIVACY/COPYRIGHT GLOSSARY LINKS
FirstGov 2019-Dec-14 17:27 UT
(server date/time)  
NASA Home Page
Site Manager:   Ryan S. Park
Webmaster  Alan B. Chamberlin